Flag for U.S.A. Weather past 2 weeks in Binghamton, New York, U.S.A.

Now
77 °F

Scattered clouds.


Feels Like: 79 °F
Forecast: 64 / 83 °F
Wind: No wind

Location: Binghamton Regional Airport

Current Time: Aug 27, 2014 at 5:13:07 PM

Latest Report: Aug 27, 2014 at 3:53 PM


Visibility: 10 mi

Pressure: 29.96 "Hg

Humidity: 71%

Dew point: 67 °F

Location of BinghamtonLocation

Historic Weather in Binghamton — Graph

°F

Binghamton temperature yesterday

Maximum temperature yesterday: 79 °F (at 3:53 PM)
Minimum temperature yesterday: 59 °F (at 5:53 AM)
Average temperature yesterday: 70 °F

Past Weeks' High & Low Weather Summary

 TemperatureHumidityPressure
High79 °F (Aug 26, 3:53 PM)100% (Aug 13, 3:03 AM)30.25 "Hg (Aug 13, 3:03 AM)
Low48 °F (Aug 19, 6:53 AM)43% (Aug 26, 5:53 PM)29.74 "Hg (Aug 13, 3:53 PM)
Average64 °F79%29.99 "Hg
* Reported Aug 12 3:53 PM — Aug 27 3:53 PM, Binghamton, Weather by CustomWeather, © 2014

Note: Actual official high and low records may vary slightly from our data, if they occured in-between our weather recording intervals... More about our weather records

Advertising

Binghamton weather history for previous 24 hours

 ConditionsComfort  
Time TempWeatherWind HumidityBarometerVisibility
3:53 PM
Aug 27
77 °FScattered clouds.No wind71%29.96 "Hg10 mi
2:53 PM74 °FOvercast.7 mph76%29.99 "Hg10 mi
2:01 PM73 °FOvercast.6 mph78%30.03 "Hg9 mi
12:53 PM73 °FOvercast.8 mph79%30.02 "Hg10 mi
11:53 AM73 °FOvercast.6 mph79%30.03 "Hg10 mi
10:53 AM72 °FOvercast.5 mph78%30.03 "Hg8 mi
10:00 AM72 °FOvercast.5 mph73%30.06 "Hg10 mi
8:53 AM70 °FPartly sunny.7 mph73%30.03 "Hg10 mi
7:53 AM68 °FPassing clouds.7 mph73%30.04 "Hg10 mi
6:53 AM66 °FPassing clouds.6 mph75%30.04 "Hg10 mi
5:53 AM66 °FPartly cloudy.7 mph75%30.03 "Hg10 mi
4:53 AM67 °FPartly cloudy.7 mph76%30.03 "Hg10 mi
3:53 AM67 °FPassing clouds.8 mph76%30.03 "Hg10 mi
2:53 AM67 °FClear.8 mph76%30.03 "Hg10 mi
1:53 AM67 °FClear.7 mph79%30.04 "Hg10 mi
12:53 AM68 °FClear.8 mph76%30.06 "Hg10 mi
11:53 PM
Aug 26
68 °FClear.7 mph76%30.07 "Hg10 mi
10:53 PM69 °FClear.8 mph73%30.07 "Hg10 mi
9:53 PM70 °FClear.8 mph71%30.08 "Hg10 mi
8:53 PM72 °FClear.8 mph64%30.09 "Hg10 mi
7:53 PM72 °FSunny.6 mph59%30.09 "Hg10 mi
6:53 PM76 °FSunny.6 mph52%30.09 "Hg10 mi
5:53 PM78 °FSunny.10 mph43%30.09 "Hg10 mi
Weather by CustomWeather, © 2014

See weather overviewHow to use our weather pages